Miscellaneous Local Product
Issued by NWS Hastings, NE

Home | Current Version | Previous Version | Graphics & Text | Print | Product List | Glossary On
Versions: 1 2 3 4 5 6 7 8 9 10 11 12 13 14 15 16 17 18 19 20 21 22 23 24 25 26 27 28 29 30 31 32 33 34 35 36 37 38 39 40 41 42 43 44 45 46 47 48 49 50
439
AXUS43 KGID 121902
MISGRI

GID CWA HOURLY WEATHER ROUNDUP
NATIONAL WEATHER SERVICE HASTINGS NE
100 PM CST FRI FEB 12 2016

NOTE: "FAIR" INDICATES FEW OR NO CLOUDS BELOW 12,000 FEET WITH NO
SIGNIFICANT WEATHER AND/OR OBSTRUCTIONS TO VISIBILITY.

...SOUTH CENTRAL NEBRASKA...

CITY           SKY/WX    TMP DP  RH WIND       PRES   REMARKS
GRAND ISLAND   FOG       23  21  92 NE16      30.50S VSB 3/4 WCI  10
HASTINGS       CLOUDY    30  24  78 NE13      30.47R WCI  20
KEARNEY        CLOUDY    30  27  86 N13       30.46S WCI  20
ORD            CLOUDY    25  19  78 N12       30.48F WCI  14
YORK           CLOUDY    25  21  86 N12       30.50S WCI  14
AURORA         FOG       24  23  96 N14       30.49S VSB 1   WCI  12
LEXINGTON      CLOUDY    34  28  78 NE7       30.44S WCI  28
HOLDREGE       CLOUDY    33  28  83 NE9       30.45S WCI  25
HEBRON         CLOUDY    31  25  77 NE12      30.49S WCI  22

...NEBRASKA PANHANDLE...

CITY           SKY/WX    TMP DP  RH WIND       PRES   REMARKS
CHADRON        CLOUDY    36  27  69 E7        30.38F WCI  30
ALLIANCE       CLOUDY    32  29  88 SE6       30.36F WCI  26
SCOTTSBLUFF    CLOUDY    36  29  75 E10       30.37S WCI  28
SIDNEY         CLOUDY    34  30  85 E12       30.36S WCI  25

...WESTERN AND NORTH CENTRAL NEBRASKA...

CITY           SKY/WX    TMP DP  RH WIND       PRES   REMARKS
VALENTINE      CLOUDY    25  14  63 NE6       30.47S WCI  18
AINSWORTH      CLOUDY    25  19  79 N6        30.46F WCI  18
ONEILL         CLOUDY    22  17  81 N13       30.50F WCI  10
BROKEN BOW     CLOUDY    29  24  82 N7        30.44F WCI  22
IMPERIAL       CLOUDY    34  31  88 E8        30.40F WCI  27
NORTH PLATTE   CLOUDY    36  27  69 NE8       30.42S WCI  30
MCCOOK         CLOUDY    34  30  85 E5        30.43F WCI  30

...EASTERN NEBRASKA...

CITY           SKY/WX    TMP DP  RH WIND       PRES   REMARKS
NORFOLK        CLOUDY    22  12  65 N17       30.52R WCI   8
SO SIOUX CITY  MOSUNNY   19   9  65 N16       30.56R WCI   4
TEKAMAH        SUNNY     20  11  68 N18       30.55R WCI   5
COLUMBUS       CLOUDY    25   9  50 N14       30.53R WCI  13
ALBION         CLOUDY    23  13  66 N13G20    30.50F WCI  11
OMAHA EPPLEY   MOSUNNY   25  13  60 N20       30.52R WCI  11
OFFUTT AFB     MOSUNNY   26  12  54 N15G23    30.51S WCI  14
MILLARD        MOSUNNY   25  10  53 NW13G23   30.53R WCI  14
LINCOLN        CLOUDY    27  16  63 N20       30.53R WCI  13
NEBRASKA CITY  CLOUDY    27  15  61 N12       30.49S WCI  17
BEATRICE       CLOUDY    29  20  70 N14       30.50S WCI  18
FALLS CITY     SUNNY     32  16  51 N13G18    30.48F WCI  22

...NORTHERN KANSAS...

CITY           SKY/WX    TMP DP  RH WIND       PRES   REMARKS
GOODLAND       CLOUDY    41  33  73 E15       30.38S
HILL CITY      CLOUDY    36  30  79 NE10      30.46S WCI  28
NORTON         CLOUDY    36  27  69 NE6       30.43  WCI  31
PHILLIPSBURG   CLOUDY    36  28  75 CALM      30.46F
SMITH CENTER   CLOUDY    36  27  69 N16       30.47S WCI  26
BELOIT         CLOUDY    34  25  69 N8        30.48F WCI  27
HAYS           CLOUDY    34  21  60 NE13      30.46F WCI  25
RUSSELL        CLOUDY    32  27  81 NE10      30.46S WCI  24
CONCORDIA      CLOUDY    33  24  69 N10       30.48S WCI  25
SALINA         CLOUDY    35  24  64 N10       30.49S WCI  27
TOPEKA         CLOUDY    37  21  52 N18G25    30.46S WCI  27



USA.gov is the U.S. government's official web portal to all federal, state and local government web resources and services.